Location: Newark
(13.6797°N, 8.5297°E)
Time: 21:18:27
(UTC+00:00)

Courier 1B Rocket - Pass Details

Date: 19 January 2020
Orbit: 920 x 1202 km, 28.2° (Epoch: 19 February)

Event Time Altitude Azimuth Distance (km) Brightness Sun altitude
Rises 11:12:17 0° 245° (WSW) 3,910 8.3 55.4°
Reaches altitude 10° 11:15:07 10° 245° (WSW) 2,910 7.7 55.5°
Maximum altitude 11:22:14 84° 334° (NNW) 1,027 6.1 55.8°
Drops below altitude 10° 11:28:50 10° 62° (ENE) 2,707 7.3 55.9°
Sets 11:31:23 0° 63° (ENE) 3,622 7.8 55.9°
